Ajaccio, France

5:17 AM CEST on September 20, 2017 (GMT +0200)
Campo Dell' Oro

Weather History for LFKJ - December, 2012

Change the Weather History Date:

Thursday, December 6, 2012

  Actual Average Record
Temperature  
Mean Temperature 48 °F -  
Max Temperature 56 °F 56 °F 68 °F (2006)
Min Temperature 39 °F 39 °F 33 °F (1999)
Degree Days  
Heating Degree Days 18    
Moisture  
Dew Point 35 °F    
Average Humidity 58    
Maximum Humidity 81    
Minimum Humidity 32    
Precipitation  
Precipitation 0.00 in 0.10 in - ()
Sea Level Pressure  
Sea Level Pressure 29.84 in    
Wind  
Wind Speed 12 mph ()    
Max Wind Speed 25 mph    
Max Gust Speed 37 mph    
Visibility 6.8 miles    
Events Rain    
Averages and records for this station are not official NWS values.
T = Trace of Precipitation, MM = Missing Value Source: Averaged Metar Reports

Daily Weather History Graph

Daily Weather History Graph

Search for Another Location

Airport or City:

Trip Planner

Search our weather history database for the weather conditions in past years. The results will help you decide how hot, cold, wet, or windy it might be!

Date:

Astronomy

Dec. 06, 2012 Rise Set
Actual Time 7:38 AM CET 4:53 PM CET
Civil Twilight 7:06 AM CET 5:24 PM CET
Nautical Twilight 6:31 AM CET 5:59 PM CET
Astronomical Twilight 5:58 AM CET 6:33 PM CET
Moon No Moon Rise 12:17 PM CET (12/6)
Length of Visible Light 10h 18m
Length of Day
9h 15m
Waning Gibbous, 52% of the Moon is Illuminated
Dec 6
Waning Gibbous
Dec 6
Last Quarter
Dec 13
New
Dec 20
First Quarter
Dec 28
Full

Hourly Weather History & Observations

Time (CET) Temp. Windchill Dew Point Humidity Pressure Visibility Wind Dir Wind Speed Gust Speed Precip Events Conditions
12:00 AM 51.8 °F - 33.8 °F 50% 29.77 in 6.2 mi NW 13.8 mph - N/A   Mostly Cloudy
12:30 AM 51.8 °F - 35.6 °F 54% 29.77 in 6.2 mi NW 10.4 mph - N/A   Overcast
1:00 AM 53 °F - 35 °F 38% 29.79 in 34 mi WNW 16.1 mph - -   Clear
1:00 AM 53.6 °F - 35.6 °F 51% 29.77 in 6.2 mi WNW 16.1 mph - N/A   Mostly Cloudy
1:30 AM 51.8 °F - 35.6 °F 54% 29.77 in 6.2 mi WNW 13.8 mph 27.6 mph N/A   Mostly Cloudy
2:00 AM 51.8 °F - 35.6 °F 54% 29.77 in 6.2 mi WNW 12.7 mph 24.2 mph N/A   Mostly Cloudy
2:30 AM 51.8 °F - 33.8 °F 50% 29.77 in 6.2 mi WNW 19.6 mph - N/A   Mostly Cloudy
3:00 AM 53.6 °F - 33.8 °F 47% 29.77 in 6.2 mi WNW 20.7 mph 35.7 mph N/A   Mostly Cloudy
3:30 AM 53.6 °F - 35.6 °F 51% 29.77 in 6.2 mi WNW 17.3 mph - N/A   Mostly Cloudy
4:00 AM 51.8 °F - 35.6 °F 54% 29.77 in 6.2 mi WNW 18.4 mph 34.5 mph N/A   Mostly Cloudy
4:30 AM 51.8 °F - 33.8 °F 50% 29.74 in 6.2 mi WNW 17.3 mph - N/A   Mostly Cloudy
5:00 AM 51.8 °F - 35.6 °F 54% 29.74 in 6.2 mi WNW 19.6 mph 31.1 mph N/A   Mostly Cloudy
5:30 AM 53.6 °F - 35.6 °F 51% 29.74 in 6.2 mi WNW 17.3 mph 28.8 mph N/A   Mostly Cloudy
6:00 AM 53.6 °F - 35.6 °F 51% 29.74 in 6.2 mi WNW 25.3 mph - N/A   Partly Cloudy
6:30 AM 51.8 °F - 35.6 °F 54% 29.74 in 6.2 mi NW 18.4 mph 33.4 mph N/A   Scattered Clouds
7:00 AM 52 °F - 34 °F 38% 29.79 in 19 mi WNW 19.6 mph - -   Mostly Cloudy
7:00 AM 51.8 °F - 35.6 °F 54% 29.77 in 6.2 mi WNW 20.7 mph 36.8 mph N/A   Scattered Clouds
7:30 AM 51.8 °F - 33.8 °F 50% 29.77 in 6.2 mi WNW 19.6 mph 32.2 mph N/A   Scattered Clouds
8:00 AM 51.8 °F - 33.8 °F 50% 29.80 in 6.2 mi WNW 18.4 mph - N/A   Scattered Clouds
8:30 AM 51.8 °F - 33.8 °F 50% 29.80 in 6.2 mi NW 13.8 mph 26.5 mph N/A   Scattered Clouds
9:30 AM 50.0 °F - 33.8 °F 54% 29.83 in 6.2 mi NW 6.9 mph - N/A   Partly Cloudy
10:00 AM 51.8 °F - 33.8 °F 50% 29.83 in 6.2 mi NNW 9.2 mph - N/A   Partly Cloudy
10:30 AM 51.8 °F - 33.8 °F 50% 29.83 in 6.2 mi NW 5.8 mph - N/A   Partly Cloudy
11:00 AM 51.8 °F - 32.0 °F 47% 29.83 in 6.2 mi WNW 6.9 mph - N/A   Scattered Clouds
11:30 AM 53.6 °F - 33.8 °F 47% 29.83 in 6.2 mi Variable 2.3 mph - N/A   Scattered Clouds
1:00 PM 56 °F - 35 °F 32% 29.85 in 25 mi South 5.8 mph - -   Clear
2:00 PM 57.2 °F - 32.0 °F 38% 29.83 in 6.2 mi Variable 3.5 mph - N/A   Scattered Clouds
2:30 PM 53.6 °F - 33.8 °F 47% 29.86 in 6.2 mi SW 4.6 mph - N/A   Scattered Clouds
3:00 PM 53.6 °F - 33.8 °F 47% 29.86 in 6.2 mi WSW 10.4 mph - N/A   Scattered Clouds
3:30 PM 53.6 °F - 37.4 °F 54% 29.86 in 6.2 mi WSW 8.1 mph - N/A   Scattered Clouds
4:00 PM 51.8 °F - 39.2 °F 62% 29.86 in 6.2 mi South 10.4 mph - N/A   Light Drizzle
4:30 PM 50.0 °F - 39.2 °F 66% 29.89 in 6.2 mi South 9.2 mph - N/A Rain Light Rain
5:00 PM 50.0 °F - 39.2 °F 66% 29.89 in 6.2 mi SSE 6.9 mph - N/A   Scattered Clouds
5:30 PM 48.2 °F - 37.4 °F 66% 29.89 in 6.2 mi East 5.8 mph - N/A   Scattered Clouds
6:00 PM 48.2 °F - 37.4 °F 66% 29.89 in 6.2 mi ENE 8.1 mph - N/A   Scattered Clouds
6:30 PM 44.6 °F 38.8 °F 37.4 °F 76% 29.89 in 6.2 mi NE 11.5 mph - N/A   Scattered Clouds
7:00 PM 44 °F - 36 °F 63% 29.92 in 19 mi NE 8.1 mph - -   Partly Cloudy
7:00 PM 44.6 °F 40.2 °F 35.6 °F 71% 29.89 in 6.2 mi NE 8.1 mph - N/A   Scattered Clouds
7:30 PM 44.6 °F 40.7 °F 35.6 °F 71% 29.92 in 6.2 mi NNE 6.9 mph - N/A   Scattered Clouds
8:00 PM 41.0 °F 38.0 °F 35.6 °F 81% 29.92 in 6.2 mi NE 4.6 mph - N/A   Scattered Clouds
8:30 PM 42.8 °F 38.0 °F 35.6 °F 76% 29.92 in 6.2 mi ENE 8.1 mph - N/A   Partly Cloudy
9:11 PM 41.0 °F 35.8 °F 33.8 °F 76% 29.95 in 6.2 mi NE 8.1 mph - N/A   Partly Cloudy
9:30 PM 41.0 °F 35.2 °F 35.6 °F 81% 29.95 in 6.2 mi ENE 9.2 mph - N/A   Scattered Clouds
10:00 PM 41.0 °F 36.4 °F 33.8 °F 76% 29.95 in 6.2 mi NE 6.9 mph - N/A   Scattered Clouds
10:30 PM 41.0 °F 35.2 °F 35.6 °F 81% 29.95 in 6.2 mi NNE 9.2 mph - N/A   Scattered Clouds
11:00 PM 39.2 °F 32.5 °F 33.8 °F 81% 29.95 in 6.2 mi NE 10.4 mph - N/A   Scattered Clouds
11:30 PM 41.0 °F 35.2 °F 33.8 °F 76% 29.95 in 6.2 mi NE 9.2 mph - N/A   Scattered Clouds